Regional Weather Roundup
Issued by NWS

Home | Current Version | Previous Version | Graphics & Text | Print | Product List | Glossary On
Versions: 1 2 3 4 5 6 7 8 9 10 11 12 13 14 15 16 17 18 19 20 21 22 23 24 25 26 27 28 29 30 31 32 33 34 35 36 37 38 39 40 41 42 43 44 45 46 47 48 49 50
000
ASUS44 KMEG 280500
RWRTN
TENNESSEE HOURLY STATE WEATHER ROUNDUP
NATIONAL WEATHER SERVICE MEMPHIS TN
1200 AM CDT SUN MAY 28 2017

TNZ002-004-019-021-049-052-054-088>092-280600-
WEST TENNESSEE

CITY           SKY/WX    TMP DP  RH WIND       PRES   REMARKS
MEMPHIS INTL   TSTM      65  63  93 E32G58    29.93R
NWS MEMPHIS      N/A     63 N/A N/A MISG        N/A
JACKSON        TSTM      65  64  97 N10       30.01R
DYERSBURG        N/A    N/A N/A N/A MISG        N/A
$$

TNZ008-025-027-028-033-062-065-066-280600-
NORTH MIDDLE TENNESSEE

CITY           SKY/WX    TMP DP  RH WIND       PRES   REMARKS
NASHVILLE      CLOUDY    65  64  97 S8        29.94S
CLARKSVILLE    LGT RAIN  64  61  90 W7        29.95R
SMYRNA         LGT RAIN  65  64  97 W3        29.96R
CROSSVILLE     CLOUDY    61  59  93 S6        29.97F
$$

TNZ061-075-076-078-094-096-097-280600-
SOUTH MIDDLE TENNESSEE

CITY           SKY/WX    TMP DP  RH WIND       PRES   REMARKS
TULLAHOMA      PTCLDY    63  63 100 CALM      29.96F
WINCHESTER     CLOUDY    64  63  94 SE8       29.96R
$$

TNZ017-018-042-046-047-280600-
NORTHEAST TENNESSEE

CITY           SKY/WX    TMP DP  RH WIND       PRES   REMARKS
TRI CITIES     TSTM      63  62  97 SE6       29.96F FOG
$$

TNZ012-013-036-069-073-074-280600-
CENTRAL EAST TENNESSEE

CITY           SKY/WX    TMP DP  RH WIND       PRES   REMARKS
KNOXVILLE      LGT RAIN  64  61  90 SW5       29.95F
OAK RIDGE      LGT RAIN  64  62  93 S5        29.96F
GATLINBURG     CLOUDY    63  61  94 SW7       29.97F
$$

TNZ083-085-099-280600-
SOUTHEAST TENNESSEE

CITY           SKY/WX    TMP DP  RH WIND       PRES   REMARKS
CHATTANOOGA    CLOUDY    66 N/A N/A SW7       29.98S
$$

SKY/WX REPORTED AS FAIR MEANS FEW OR NO CLOUDS BELOW
12 THOUSAND FEET.





USA.gov is the U.S. government's official web portal to all federal, state and local government web resources and services.